,,Stat6,,Stat2,,Stat8,,Stat9,,Stat10,,Wind1,,Wind1,
time,status,PA1M_AVG,status,PR1M_SUM,status,RH1M_AVG,status,SR1M_AVG,status,TA1M_AVG,status,W1dAve1m,status,W1sAve1m,
2009-01-31, 00:00:00,VALID,917.299,VALID,0,VALID,100,VALID,-0.101885,VALID,18.496,VALID,17,VALID,0.0576172,
2009-01-31, 00:01:00,VALID,917.296,VALID,0,VALID,100,VALID,-0.101885,VALID,18.522,VALID,17,VALID,0.0759215,
2009-01-31, 00:02:00,VALID,917.291,VALID,0,VALID,100,VALID,-0.101885,VALID,18.5382,VALID,21,VALID,0,
2009-01-31, 00:03:00,VALID,917.283,VALID,0,VALID,100,VALID,-0.118866,VALID,18.5486,VALID,21,VALID,0,
2009-01-31, 00:04:00,VALID,917.275,VALID,0,VALID,100,VALID,-0.101885,VALID,18.5546,VALID,16,VALID,0,
2009-01-31, 00:05:00,VALID,917.257,VALID,0,VALID,100,VALID,-0.101885,VALID,18.5477,VALID,4,VALID,0,
2009-01-31, 00:06:00,VALID,917.24,VALID,0,VALID,100,VALID,-0.0679233,VALID,18.5609,VALID,10,VALID,0,
2009-01-31, 00:07:00,VALID,917.222,VALID,0,VALID,100,VALID,-0.101885,VALID,18.5706,VALID,6,VALID,0,
2009-01-31, 00:08:00,VALID,917.198,VALID,0,VALID,100,VALID,-0.101885,VALID,18.5769,VALID,360,VALID,0,
2009-01-31, 00:09:00,VALID,917.166,VALID,0,VALID,100,VALID,-0.101885,VALID,18.5808,VALID,360,VALID,0,
2009-01-31, 00:10:00,VALID,917.157,VALID,0,VALID,100,VALID,-0.101885,VALID,18.5938,VALID,360,VALID,0,
2009-01-31, 00:11:00,VALID,917.134,VALID,0,VALID,100,VALID,-0.101885,VALID,18.5834,VALID,6,VALID,0,
2009-01-31, 00:12:00,VALID,917.125,VALID,0,VALID,100,VALID,-0.0849042,VALID,18.597,VALID,11,VALID,0,
2009-01-31, 00:13:00,VALID,917.123,VALID,0,VALID,100,VALID,-0.101885,VALID,18.5936,VALID,11,VALID,0,
2009-01-31, 00:14:00,VALID,917.13,VALID,0,VALID,100,VALID,-0.0849042,VALID,18.5901,VALID,11,VALID,0,
2009-01-31, 00:15:00,VALID,917.125,VALID,0,VALID,100,VALID,-0.0849042,VALID,18.5838,VALID,11,VALID,0,
2009-01-31, 00:16:00,VALID,917.118,VALID,0,VALID,100,VALID,-0.101885,VALID,18.5709,VALID,20,VALID,0,
2009-01-31, 00:17:00,VALID,917.109,VALID,0,VALID,100,VALID,-0.0849042,VALID,18.5444,VALID,38,VALID,0,
2009-01-31, 00:18:00,VALID,917.116,VALID,0,VALID,100,VALID,-0.101885,VALID,18.5514,VALID,27,VALID,0,
2009-01-31, 00:19:00,VALID,917.108,VALID,0,VALID,100,VALID,-0.0849042,VALID,18.5609,VALID,26,VALID,0,
2009-01-31, 00:20:00,VALID,917.099,VALID,0,VALID,100,VALID,-0.101885,VALID,18.5542,VALID,22,VALID,0,
2009-01-31, 00:21:00,VALID,917.098,VALID,0,VALID,100,VALID,-0.101885,VALID,18.5579,VALID,13,VALID,0,
2009-01-31, 00:22:00,VALID,917.097,VALID,0,VALID,100,VALID,-0.0849042,VALID,18.5709,VALID,8,VALID,0,
2009-01-31, 00:23:00,VALID,917.096,VALID,0,VALID,100,VALID,-0.0849042,VALID,18.5769,VALID,8,VALID,0,
2009-01-31, 00:24:00,VALID,917.09,VALID,0,VALID,100,VALID,-0.101885,VALID,18.5736,VALID,22,VALID,0,
2009-01-31, 00:25:00,VALID,917.07,VALID,0,VALID,100,VALID,-0.101885,VALID,18.5704,VALID,22,VALID,0,
2009-01-31, 00:26:00,VALID,917.07,VALID,0,VALID,100,VALID,-0.0679233,VALID,18.5639,VALID,22,VALID,0,
2009-01-31, 00:27:00,VALID,917.062,VALID,0,VALID,100,VALID,-0.0509425,VALID,18.5706,VALID,359,VALID,0,
2009-01-31, 00:28:00,VALID,917.043,VALID,0,VALID,100,VALID,-0.101885,VALID,18.5801,VALID,345,VALID,0,
2009-01-31, 00:29:00,VALID,917.023,VALID,0,VALID,100,VALID,-0.101885,VALID,18.6026,VALID,344,VALID,0,
2009-01-31, 00:30:00,VALID,917.028,VALID,0,VALID,100,VALID,-0.0849042,VALID,18.6026,VALID,355,VALID,0,
2009-01-31, 00:31:00,VALID,917.01,VALID,0,VALID,100,VALID,-0.101885,VALID,18.6,VALID,355,VALID,0,
2009-01-31, 00:32:00,VALID,917.009,VALID,0,VALID,100,VALID,-0.101885,VALID,18.5963,VALID,351,VALID,0,
2009-01-31, 00:33:00,VALID,917.007,VALID,0,VALID,100,VALID,-0.0339617,VALID,18.5831,VALID,348,VALID,0,
2009-01-31, 00:34:00,VALID,917.014,VALID,0,VALID,100,VALID,-0.0679233,VALID,18.5766,VALID,351,VALID,0,
2009-01-31, 00:35:00,VALID,917,VALID,0,VALID,100,VALID,-0.101885,VALID,18.5669,VALID,19,VALID,0.0012718,
2009-01-31, 00:36:00,VALID,917.011,VALID,0,VALID,100,VALID,-0.0849042,VALID,18.5901,VALID,16,VALID,0,
2009-01-31, 00:37:00,VALID,916.997,VALID,0,VALID,100,VALID,-0.101885,VALID,18.5998,VALID,15,VALID,0,
2009-01-31, 00:38:00,VALID,916.989,VALID,0,VALID,100,VALID,-0.101885,VALID,18.6063,VALID,303,VALID,0,
2009-01-31, 00:39:00,VALID,916.96,VALID,0,VALID,100,VALID,-0.0679233,VALID,18.6223,VALID,343,VALID,0,
2009-01-31, 00:40:00,VALID,916.947,VALID,0,VALID,100,VALID,-0.0849042,VALID,18.6223,VALID,20,VALID,0.113281,
2009-01-31, 00:41:00,VALID,916.947,VALID,0,VALID,100,VALID,-0.101885,VALID,18.6253,VALID,25,VALID,0,
2009-01-31, 00:42:00,VALID,916.959,VALID,0,VALID,100,VALID,-0.101885,VALID,18.6417,VALID,12,VALID,0.0012429,
2009-01-31, 00:43:00,VALID,916.959,VALID,0,VALID,100,VALID,-0.0339617,VALID,18.645,VALID,11,VALID,0,
2009-01-31, 00:44:00,VALID,916.979,VALID,0,VALID,100,VALID,-0.101885,VALID,18.642,VALID,8,VALID,0,
2009-01-31, 00:45:00,VALID,916.997,VALID,0,VALID,100,VALID,-0.0849042,VALID,18.6288,VALID,7,VALID,0,
2009-01-31, 00:46:00,VALID,917.006,VALID,0,VALID,100,VALID,-0.101885,VALID,18.6422,VALID,15,VALID,0,
2009-01-31, 00:47:00,VALID,917.018,VALID,0,VALID,100,VALID,-0.101885,VALID,18.6517,VALID,26,VALID,0,
2009-01-31, 00:48:00,VALID,917.026,VALID,0,VALID,100,VALID,-0.101885,VALID,18.648,VALID,26,VALID,0,
2009-01-31, 00:49:00,VALID,917.027,VALID,0,VALID,100,VALID,-0.101885,VALID,18.655,VALID,26,VALID,0,
2009-01-31, 00:50:00,VALID,917.027,VALID,0,VALID,100,VALID,-0.101885,VALID,18.6644,VALID,26,VALID,0,
2009-01-31, 00:51:00,VALID,917.035,VALID,0,VALID,100,VALID,-0.0679233,VALID,18.6482,VALID,26,VALID,0,
2009-01-31, 00:52:00,VALID,917.028,VALID,0,VALID,100,VALID,-0.101885,VALID,18.6383,VALID,26,VALID,0,
2009-01-31, 00:53:00,VALID,917.016,VALID,0,VALID,100,VALID,0.0339617,VALID,18.6274,VALID,18,VALID,0,
2009-01-31, 00:54:00,VALID,917.005,VALID,0,VALID,100,VALID,0.0169808,VALID,18.6241,VALID,12,VALID,0,
2009-01-31, 00:55:00,VALID,916.997,VALID,0,VALID,100,VALID,0.0169808,VALID,18.6271,VALID,9,VALID,0,
2009-01-31, 00:56:00,VALID,916.991,VALID,0,VALID,100,VALID,0.0169808,VALID,18.6403,VALID,8,VALID,0,
2009-01-31, 00:57:00,VALID,916.989,VALID,0,VALID,100,VALID,0.0169808,VALID,18.6565,VALID,8,VALID,0,
2009-01-31, 00:58:00,VALID,916.998,VALID,0,VALID,100,VALID,0.0169808,VALID,18.6565,VALID,8,VALID,0,
2009-01-31, 00:59:00,VALID,916.998,VALID,0,VALID,100,VALID,-0.0169808,VALID,18.6663,VALID,8,VALID,0,
2009-01-31, 01:00:00,VALID,917.007,VALID,0,VALID,100,VALID,0.0509425,VALID,18.6792,VALID,8,VALID,0,
2009-01-31, 01:01:00,VALID,916.992,VALID,0,VALID,100,VALID,0.0339617,VALID,18.6823,VALID,8,VALID,0,
2009-01-31, 01:02:00,VALID,916.988,VALID,0,VALID,100,VALID,0,VALID,18.6725,VALID,8,VALID,0,
2009-01-31, 01:03:00,VALID,916.988,VALID,0,VALID,100,VALID,0.0339617,VALID,18.6698,VALID,8,VALID,0,
2009-01-31, 01:04:00,VALID,917.001,VALID,0,VALID,100,VALID,0,VALID,18.6792,VALID,8,VALID,0,
2009-01-31, 01:05:00,VALID,917.001,VALID,0,VALID,100,VALID,0.0169808,VALID,18.6952,VALID,8,VALID,0,
2009-01-31, 01:06:00,VALID,917.009,VALID,0,VALID,100,VALID,-0.0169808,VALID,18.6922,VALID,8,VALID,0,
2009-01-31, 01:07:00,VALID,917.002,VALID,0,VALID,100,VALID,0,VALID,18.7084,VALID,8,VALID,0,
2009-01-31, 01:08:00,VALID,916.99,VALID,0,VALID,100,VALID,-0.0169808,VALID,18.7087,VALID,8,VALID,0,
2009-01-31, 01:09:00,VALID,916.995,VALID,0,VALID,100,VALID,0,VALID,18.6922,VALID,8,VALID,0,
2009-01-31, 01:10:00,VALID,916.966,VALID,0,VALID,100,VALID,0.0169808,VALID,18.6792,VALID,8,VALID,0,
2009-01-31, 01:11:00,VALID,916.967,VALID,0,VALID,100,VALID,0.0169808,VALID,18.689,VALID,8,VALID,0,
2009-01-31, 01:12:00,VALID,916.961,VALID,0,VALID,100,VALID,0,VALID,18.6925,VALID,8,VALID,0,
2009-01-31, 01:13:00,VALID,916.956,VALID,0,VALID,100,VALID,0.0169808,VALID,18.6989,VALID,8,VALID,0,
2009-01-31, 01:14:00,VALID,916.958,VALID,0,VALID,100,VALID,0,VALID,18.702,VALID,8,VALID,0,
2009-01-31, 01:15:00,VALID,916.953,VALID,0,VALID,100,VALID,0.0509425,VALID,18.6853,VALID,8,VALID,0,
2009-01-31, 01:16:00,VALID,916.933,VALID,0,VALID,100,VALID,0,VALID,18.6825,VALID,338,VALID,0,
2009-01-31, 01:17:00,VALID,916.914,VALID,0,VALID,100,VALID,-0.0169808,VALID,18.666,VALID,263,VALID,0,
2009-01-31, 01:18:00,VALID,916.899,VALID,0,VALID,100,VALID,-0.0169808,VALID,18.663,VALID,251,VALID,0,
2009-01-31, 01:19:00,VALID,916.889,VALID,0,VALID,100,VALID,0,VALID,18.6598,VALID,251,VALID,0,
2009-01-31, 01:20:00,VALID,916.867,VALID,0,VALID,100,VALID,0,VALID,18.6635,VALID,251,VALID,0,
2009-01-31, 01:21:00,VALID,916.856,VALID,0,VALID,100,VALID,0.0339617,VALID,18.6628,VALID,251,VALID,0,
2009-01-31, 01:22:00,VALID,916.842,VALID,0,VALID,100,VALID,0,VALID,18.6628,VALID,251,VALID,0,
2009-01-31, 01:23:00,VALID,916.818,VALID,0,VALID,100,VALID,-0.101885,VALID,18.6512,VALID,251,VALID,0,
2009-01-31, 01:24:00,VALID,916.807,VALID,0,VALID,100,VALID,-0.101885,VALID,18.6417,VALID,251,VALID,0,
2009-01-31, 01:25:00,VALID,916.796,VALID,0,VALID,100,VALID,-0.101885,VALID,18.6255,VALID,258,VALID,0,
2009-01-31, 01:26:00,VALID,916.788,VALID,0,VALID,100,VALID,-0.0849042,VALID,18.6061,VALID,266,VALID,0,
2009-01-31, 01:27:00,VALID,916.787,VALID,0,VALID,100,VALID,-0.118866,VALID,18.6061,VALID,266,VALID,0,
2009-01-31, 01:28:00,VALID,916.767,VALID,0,VALID,100,VALID,-0.101885,VALID,18.6031,VALID,266,VALID,0,
2009-01-31, 01:29:00,VALID,916.754,VALID,0,VALID,100,VALID,-0.0849042,VALID,18.5931,VALID,264,VALID,0,
2009-01-31, 01:30:00,VALID,916.735,VALID,0,VALID,100,VALID,-0.101885,VALID,18.5963,VALID,264,VALID,0,
2009-01-31, 01:31:00,VALID,916.75,VALID,0,VALID,100,VALID,-0.0849042,VALID,18.5993,VALID,266,VALID,0,
2009-01-31, 01:32:00,VALID,916.751,VALID,0,VALID,100,VALID,-0.118866,VALID,18.6193,VALID,292,VALID,0,
2009-01-31, 01:33:00,VALID,916.759,VALID,0,VALID,100,VALID,-0.0679233,VALID,18.6028,VALID,336,VALID,0,
2009-01-31, 01:34:00,VALID,916.748,VALID,0,VALID,100,VALID,-0.101885,VALID,18.5901,VALID,346,VALID,0,
2009-01-31, 01:35:00,VALID,916.747,VALID,0,VALID,100,VALID,-0.101885,VALID,18.5771,VALID,348,VALID,0,
2009-01-31, 01:36:00,VALID,916.726,VALID,0,VALID,100,VALID,-0.118866,VALID,18.5671,VALID,3,VALID,0,
2009-01-31, 01:37:00,VALID,916.729,VALID,0,VALID,100,VALID,-0.101885,VALID,18.5607,VALID,6,VALID,0,
2009-01-31, 01:38:00,VALID,916.718,VALID,0,VALID,100,VALID,-0.101885,VALID,18.5539,VALID,6,VALID,0,
2009-01-31, 01:39:00,VALID,916.712,VALID,0,VALID,100,VALID,-0.0849042,VALID,18.5572,VALID,6,VALID,0,
2009-01-31, 01:40:00,VALID,916.697,VALID,0,VALID,100,VALID,-0.0679233,VALID,18.5505,VALID,6,VALID,0,
2009-01-31, 01:41:00,VALID,916.67,VALID,0,VALID,100,VALID,-0.0679233,VALID,18.5569,VALID,6,VALID,0,
2009-01-31, 01:42:00,VALID,916.666,VALID,0,VALID,100,VALID,-0.101885,VALID,18.5542,VALID,219,VALID,0,
2009-01-31, 01:43:00,VALID,916.655,VALID,0,VALID,100,VALID,-0.101885,VALID,18.5509,VALID,204,VALID,0,
2009-01-31, 01:44:00,VALID,916.638,VALID,0,VALID,100,VALID,-0.0849042,VALID,18.5637,VALID,204,VALID,0,
2009-01-31, 01:45:00,VALID,916.635,VALID,0,VALID,100,VALID,-0.0679233,VALID,18.5639,VALID,204,VALID,0,
2009-01-31, 01:46:00,VALID,916.621,VALID,0,VALID,100,VALID,-0.101885,VALID,18.5739,VALID,204,VALID,0,
2009-01-31, 01:47:00,VALID,916.606,VALID,0,VALID,100,VALID,-0.152827,VALID,18.5711,VALID,204,VALID,0,
2009-01-31, 01:48:00,VALID,916.619,VALID,0,VALID,100,VALID,-0.118866,VALID,18.5616,VALID,204,VALID,0,
2009-01-31, 01:49:00,VALID,916.615,VALID,0,VALID,100,VALID,-0.101885,VALID,18.5509,VALID,204,VALID,0,
2009-01-31, 01:50:00,VALID,916.619,VALID,0,VALID,100,VALID,-0.0849042,VALID,18.5509,VALID,204,VALID,0,
2009-01-31, 01:51:00,VALID,916.622,VALID,0,VALID,100,VALID,-0.101885,VALID,18.5576,VALID,204,VALID,0,
2009-01-31, 01:52:00,VALID,916.624,VALID,0,VALID,100,VALID,-0.118866,VALID,18.5576,VALID,204,VALID,0,
2009-01-31, 01:53:00,VALID,916.611,VALID,0,VALID,100,VALID,0,VALID,18.5694,VALID,204,VALID,0,
2009-01-31, 01:54:00,VALID,916.61,VALID,0,VALID,100,VALID,0.0169808,VALID,18.569,VALID,247,VALID,0,
2009-01-31, 01:55:00,VALID,916.609,VALID,0,VALID,100,VALID,0,VALID,18.5757,VALID,254,VALID,0,
2009-01-31, 01:56:00,VALID,916.598,VALID,0,VALID,100,VALID,0,VALID,18.5757,VALID,234,VALID,0,
2009-01-31, 01:57:00,VALID,916.594,VALID,0,VALID,100,VALID,0.0169808,VALID,18.5884,VALID,237,VALID,0,
2009-01-31, 01:58:00,VALID,916.603,VALID,0,VALID,100,VALID,0,VALID,18.5884,VALID,241,VALID,0,
2009-01-31, 01:59:00,VALID,916.593,VALID,0,VALID,100,VALID,0,VALID,18.6014,VALID,245,VALID,0,
2009-01-31, 02:00:00,VALID,916.583,VALID,0,VALID,100,VALID,0,VALID,18.6084,VALID,238,VALID,0,
2009-01-31, 02:01:00,VALID,916.583,VALID,0,VALID,100,VALID,-0.0339617,VALID,18.6243,VALID,239,VALID,0,
2009-01-31, 02:02:00,VALID,916.581,VALID,0,VALID,100,VALID,-0.0339617,VALID,18.6308,VALID,242,VALID,0,
2009-01-31, 02:03:00,VALID,916.57,VALID,0,VALID,100,VALID,-0.0169808,VALID,18.6306,VALID,254,VALID,0,
2009-01-31, 02:04:00,VALID,916.57,VALID,0,VALID,100,VALID,-0.0339617,VALID,18.6403,VALID,250,VALID,0,
2009-01-31, 02:05:00,VALID,916.547,VALID,0,VALID,100,VALID,0,VALID,18.6371,VALID,260,VALID,0,
2009-01-31, 02:06:00,VALID,916.535,VALID,0,VALID,100,VALID,0,VALID,18.6538,VALID,245,VALID,0.0355283,
2009-01-31, 02:07:00,VALID,916.528,VALID,0,VALID,100,VALID,0,VALID,18.6728,VALID,241,VALID,0,
2009-01-31, 02:08:00,VALID,916.516,VALID,0,VALID,100,VALID,-0.0679233,VALID,18.6969,VALID,256,VALID,0,
2009-01-31, 02:09:00,VALID,916.524,VALID,0,VALID,100,VALID,-0.101885,VALID,18.6971,VALID,256,VALID,0,
2009-01-31, 02:10:00,VALID,916.514,VALID,0,VALID,100,VALID,-0.0679233,VALID,18.6904,VALID,258,VALID,0,
2009-01-31, 02:11:00,VALID,916.484,VALID,0,VALID,100,VALID,-0.118866,VALID,18.6906,VALID,252,VALID,0,
2009-01-31, 02:12:00,VALID,916.48,VALID,0,VALID,100,VALID,-0.101885,VALID,18.6679,VALID,238,VALID,0,
2009-01-31, 02:13:00,VALID,916.472,VALID,0,VALID,100,VALID,-0.0679233,VALID,18.6707,VALID,262,VALID,0,
2009-01-31, 02:14:00,VALID,916.467,VALID,0,VALID,100,VALID,-0.118866,VALID,18.6939,VALID,265,VALID,0,
2009-01-31, 02:15:00,VALID,916.462,VALID,0,VALID,100,VALID,-0.0849042,VALID,18.6874,VALID,223,VALID,0,
2009-01-31, 02:16:00,VALID,916.451,VALID,0,VALID,100,VALID,-0.0849042,VALID,18.6906,VALID,227,VALID,0,
2009-01-31, 02:17:00,VALID,916.436,VALID,0,VALID,100,VALID,-0.0679233,VALID,18.6774,VALID,264,VALID,0,
2009-01-31, 02:18:00,VALID,916.427,VALID,0,VALID,100,VALID,-0.101885,VALID,18.6547,VALID,260,VALID,0,
2009-01-31, 02:19:00,VALID,916.409,VALID,0,VALID,100,VALID,-0.0849042,VALID,18.6322,VALID,258,VALID,0,
2009-01-31, 02:20:00,VALID,916.388,VALID,0,VALID,100,VALID,-0.0849042,VALID,18.6061,VALID,258,VALID,0,
2009-01-31, 02:21:00,VALID,916.381,VALID,0,VALID,100,VALID,-0.101885,VALID,18.5931,VALID,259,VALID,0,
2009-01-31, 02:22:00,VALID,916.346,VALID,0,VALID,100,VALID,-0.101885,VALID,18.5866,VALID,272,VALID,0,
2009-01-31, 02:23:00,VALID,916.349,VALID,0,VALID,100,VALID,0,VALID,18.5725,VALID,270,VALID,0,
2009-01-31, 02:24:00,VALID,916.335,VALID,0,VALID,100,VALID,-0.0169808,VALID,18.5692,VALID,270,VALID,0,
2009-01-31, 02:25:00,VALID,916.344,VALID,0,VALID,100,VALID,0,VALID,18.5597,VALID,270,VALID,0,
2009-01-31, 02:26:00,VALID,916.319,VALID,0,VALID,100,VALID,0,VALID,18.5467,VALID,271,VALID,0,
2009-01-31, 02:27:00,VALID,916.297,VALID,0,VALID,100,VALID,-0.0169808,VALID,18.5268,VALID,273,VALID,0,
2009-01-31, 02:28:00,VALID,916.276,VALID,0,VALID,100,VALID,-0.0339617,VALID,18.5405,VALID,339,VALID,0,
2009-01-31, 02:29:00,VALID,916.263,VALID,0,VALID,100,VALID,-0.0509425,VALID,18.5535,VALID,20,VALID,0,
2009-01-31, 02:30:00,VALID,916.259,VALID,0,VALID,100,VALID,-0.0169808,VALID,18.5697,VALID,20,VALID,0,
2009-01-31, 02:31:00,VALID,916.238,VALID,0,VALID,100,VALID,-0.0509425,VALID,18.5435,VALID,294,VALID,0.0331101,
2009-01-31, 02:32:00,VALID,916.245,VALID,0,VALID,100,VALID,-0.0169808,VALID,18.5275,VALID,286,VALID,0.0534446,
2009-01-31, 02:33:00,VALID,916.237,VALID,0,VALID,100,VALID,0.0169808,VALID,18.5463,VALID,306,VALID,0,
2009-01-31, 02:34:00,VALID,916.23,VALID,0,VALID,100,VALID,0.0169808,VALID,18.5465,VALID,29,VALID,0,
2009-01-31, 02:35:00,VALID,916.226,VALID,0,VALID,100,VALID,-0.0169808,VALID,18.5331,VALID,35,VALID,0,
2009-01-31, 02:36:00,VALID,916.211,VALID,0,VALID,100,VALID,-0.0169808,VALID,18.5203,VALID,35,VALID,0,
2009-01-31, 02:37:00,VALID,916.223,VALID,0,VALID,100,VALID,-0.0169808,VALID,18.5108,VALID,35,VALID,0,
2009-01-31, 02:38:00,VALID,916.219,VALID,0,VALID,100,VALID,0,VALID,18.5076,VALID,35,VALID,0,
2009-01-31, 02:39:00,VALID,916.214,VALID,0,VALID,100,VALID,0.0169808,VALID,18.5041,VALID,35,VALID,0,
2009-01-31, 02:40:00,VALID,916.208,VALID,0,VALID,100,VALID,0,VALID,18.5076,VALID,35,VALID,0,
2009-01-31, 02:41:00,VALID,916.2,VALID,0,VALID,100,VALID,-0.0339617,VALID,18.5046,VALID,35,VALID,0,
2009-01-31, 02:42:00,VALID,916.198,VALID,0,VALID,100,VALID,0.0339617,VALID,18.5074,VALID,35,VALID,0,
2009-01-31, 02:43:00,VALID,916.191,VALID,0,VALID,100,VALID,-0.0339617,VALID,18.4916,VALID,35,VALID,0,
2009-01-31, 02:44:00,VALID,916.171,VALID,0,VALID,100,VALID,0,VALID,18.4816,VALID,35,VALID,0,
2009-01-31, 02:45:00,VALID,916.173,VALID,0,VALID,100,VALID,0,VALID,18.4687,VALID,35,VALID,0,
2009-01-31, 02:46:00,VALID,916.169,VALID,0,VALID,100,VALID,-0.0169808,VALID,18.4525,VALID,35,VALID,0,
2009-01-31, 02:47:00,VALID,916.152,VALID,0,VALID,100,VALID,0,VALID,18.4525,VALID,35,VALID,0,
2009-01-31, 02:48:00,VALID,916.14,VALID,0,VALID,100,VALID,-0.0169808,VALID,18.4457,VALID,35,VALID,0,
2009-01-31, 02:49:00,VALID,916.12,VALID,0,VALID,100,VALID,0.0169808,VALID,18.433,VALID,35,VALID,0,
2009-01-31, 02:50:00,VALID,916.113,VALID,0,VALID,100,VALID,0,VALID,18.4362,VALID,35,VALID,0,
2009-01-31, 02:51:00,VALID,916.104,VALID,0,VALID,100,VALID,0,VALID,18.4298,VALID,35,VALID,0,
2009-01-31, 02:52:00,VALID,916.085,VALID,0,VALID,100,VALID,0,VALID,18.42,VALID,35,VALID,0,
2009-01-31, 02:53:00,VALID,916.071,VALID,0,VALID,100,VALID,-0.0169808,VALID,18.3941,VALID,32,VALID,0,
2009-01-31, 02:54:00,VALID,916.076,VALID,0,VALID,100,VALID,0.0169808,VALID,18.3841,VALID,30,VALID,0,
2009-01-31, 02:55:00,VALID,916.05,VALID,0,VALID,100,VALID,-0.0339617,VALID,18.3684,VALID,42,VALID,0,
2009-01-31, 02:56:00,VALID,916.05,VALID,0,VALID,100,VALID,0,VALID,18.3582,VALID,37,VALID,0,
2009-01-31, 02:57:00,VALID,916.062,VALID,0,VALID,100,VALID,0,VALID,18.3619,VALID,37,VALID,0,
2009-01-31, 02:58:00,VALID,916.047,VALID,0,VALID,100,VALID,0,VALID,18.3484,VALID,37,VALID,0,
2009-01-31, 02:59:00,VALID,916.046,VALID,0,VALID,100,VALID,-0.0169808,VALID,18.3452,VALID,37,VALID,0,
2009-01-31, 03:00:00,VALID,916.037,VALID,0,VALID,100,VALID,-0.0169808,VALID,18.3392,VALID,34,VALID,0,
2009-01-31, 03:01:00,VALID,916.039,VALID,0,VALID,100,VALID,0,VALID,18.3227,VALID,31,VALID,0,
2009-01-31, 03:02:00,VALID,916.041,VALID,0,VALID,100,VALID,0.0169808,VALID,18.3061,VALID,32,VALID,0,
2009-01-31, 03:03:00,VALID,916.024,VALID,0,VALID,100,VALID,-0.0169808,VALID,18.31,VALID,32,VALID,0,
2009-01-31, 03:04:00,VALID,916,VALID,0,VALID,100,VALID,0,VALID,18.2933,VALID,32,VALID,0,
2009-01-31, 03:05:00,VALID,915.996,VALID,0,VALID,100,VALID,0.0169808,VALID,18.2966,VALID,32,VALID,0,
2009-01-31, 03:06:00,VALID,915.974,VALID,0,VALID,100,VALID,0,VALID,18.2836,VALID,32,VALID,0,
2009-01-31, 03:07:00,VALID,915.936,VALID,0,VALID,100,VALID,0.0169808,VALID,18.2769,VALID,29,VALID,0,
2009-01-31, 03:08:00,VALID,915.917,VALID,0,VALID,100,VALID,0.0169808,VALID,18.2806,VALID,29,VALID,0,
2009-01-31, 03:09:00,VALID,915.901,VALID,0,VALID,100,VALID,0,VALID,18.2743,VALID,22,VALID,0,
2009-01-31, 03:10:00,VALID,915.886,VALID,0,VALID,100,VALID,0.0169808,VALID,18.2641,VALID,27,VALID,0,
2009-01-31, 03:11:00,VALID,915.87,VALID,0,VALID,100,VALID,0,VALID,18.2572,VALID,28,VALID,0,
2009-01-31, 03:12:00,VALID,915.855,VALID,0,VALID,100,VALID,-0.0169808,VALID,18.2639,VALID,25,VALID,0,
2009-01-31, 03:13:00,VALID,915.844,VALID,0,VALID,100,VALID,0,VALID,18.2607,VALID,15,VALID,0,
2009-01-31, 03:14:00,VALID,915.838,VALID,0,VALID,100,VALID,0.0339617,VALID,18.2512,VALID,4,VALID,0,
2009-01-31, 03:15:00,VALID,915.823,VALID,0,VALID,100,VALID,-0.0169808,VALID,18.2572,VALID,26,VALID,0,
2009-01-31, 03:16:00,VALID,915.798,VALID,0,VALID,100,VALID,0.0169808,VALID,18.2806,VALID,28,VALID,0.213778,
2009-01-31, 03:17:00,VALID,915.792,VALID,0,VALID,100,VALID,0.0509425,VALID,18.2933,VALID,22,VALID,0.00218023,
2009-01-31, 03:18:00,VALID,915.765,VALID,0,VALID,100,VALID,0.0509425,VALID,18.2896,VALID,25,VALID,0,
2009-01-31, 03:19:00,VALID,915.744,VALID,0,VALID,100,VALID,0,VALID,18.2868,VALID,26,VALID,0.397195,
2009-01-31, 03:20:00,VALID,915.723,VALID,0,VALID,100,VALID,-0.0169808,VALID,18.3035,VALID,20,VALID,0.589134,
2009-01-31, 03:21:00,VALID,915.718,VALID,0,VALID,100,VALID,-0.0169808,VALID,18.3065,VALID,17,VALID,0.644431,
2009-01-31, 03:22:00,VALID,915.694,VALID,0,VALID,100,VALID,0.0339617,VALID,18.3255,VALID,20,VALID,0.220982,
2009-01-31, 03:23:00,VALID,915.667,VALID,0,VALID,100,VALID,-0.0169808,VALID,18.3253,VALID,24,VALID,0.218559,
2009-01-31, 03:24:00,VALID,915.66,VALID,0,VALID,100,VALID,-0.0169808,VALID,18.3315,VALID,17,VALID,0.500381,
2009-01-31, 03:25:00,VALID,915.664,VALID,0,VALID,100,VALID,0,VALID,18.3535,VALID,23,VALID,0.381138,
2009-01-31, 03:26:00,VALID,915.655,VALID,0,VALID,100,VALID,0.0169808,VALID,18.3674,VALID,25,VALID,0.0574219,
2009-01-31, 03:27:00,VALID,915.64,VALID,0,VALID,100,VALID,0,VALID,18.3614,VALID,23,VALID,0.507635,
2009-01-31, 03:28:00,VALID,915.628,VALID,0,VALID,100,VALID,-0.0169808,VALID,18.3776,VALID,25,VALID,0.687872,
2009-01-31, 03:29:00,VALID,915.62,VALID,0,VALID,100,VALID,0,VALID,18.3839,VALID,25,VALID,0.570313,
2009-01-31, 03:30:00,VALID,915.613,VALID,0,VALID,100,VALID,0,VALID,18.3969,VALID,27,VALID,0.899554,
2009-01-31, 03:31:00,VALID,915.602,VALID,0,VALID,100,VALID,0,VALID,18.3971,VALID,22,VALID,1.11016,
2009-01-31, 03:32:00,VALID,915.584,VALID,0,VALID,100,VALID,0,VALID,18.4101,VALID,15,VALID,0.754607,
2009-01-31, 03:33:00,VALID,915.582,VALID,0,VALID,100,VALID,0,VALID,18.4133,VALID,23,VALID,0.474848,
2009-01-31, 03:34:00,VALID,915.577,VALID,0,VALID,100,VALID,-0.0169808,VALID,18.4033,VALID,18,VALID,0.864062,
2009-01-31, 03:35:00,VALID,915.565,VALID,0,VALID,100,VALID,0,VALID,18.3904,VALID,14,VALID,0.197674,
2009-01-31, 03:36:00,VALID,915.579,VALID,0,VALID,100,VALID,0,VALID,18.3804,VALID,21,VALID,0.175305,
2009-01-31, 03:37:00,VALID,915.575,VALID,0,VALID,100,VALID,0,VALID,18.3774,VALID,20,VALID,0.282738,
2009-01-31, 03:38:00,VALID,915.559,VALID,0,VALID,100,VALID,-0.0169808,VALID,18.3547,VALID,17,VALID,0.630556,
2009-01-31, 03:39:00,VALID,915.56,VALID,0,VALID,100,VALID,-0.0509425,VALID,18.3484,VALID,23,VALID,0.199132,
2009-01-31, 03:40:00,VALID,915.559,VALID,0,VALID,100,VALID,0,VALID,18.3549,VALID,20,VALID,0.25728,
2009-01-31, 03:41:00,VALID,915.548,VALID,0,VALID,100,VALID,-0.0169808,VALID,18.3415,VALID,25,VALID,0.180575,
2009-01-31, 03:42:00,VALID,915.541,VALID,0,VALID,100,VALID,-0.0169808,VALID,18.3515,VALID,5,VALID,0.447856,
2009-01-31, 03:43:00,VALID,915.548,VALID,0,VALID,100,VALID,0,VALID,18.3545,VALID,23,VALID,0.124273,
2009-01-31, 03:44:00,VALID,915.548,VALID,0,VALID,100,VALID,-0.0169808,VALID,18.3681,VALID,25,VALID,0.312695,
2009-01-31, 03:45:00,VALID,915.553,VALID,0,VALID,100,VALID,-0.0339617,VALID,18.3582,VALID,359,VALID,0.346475,
2009-01-31, 03:46:00,VALID,915.535,VALID,0,VALID,100,VALID,0,VALID,18.3607,VALID,20,VALID,0.513867,
2009-01-31, 03:47:00,VALID,915.537,VALID,0,VALID,100,VALID,0,VALID,18.3806,VALID,12,VALID,0.453906,
2009-01-31, 03:48:00,VALID,915.537,VALID,0,VALID,100,VALID,0,VALID,18.3971,VALID,15,VALID,0.078497,
2009-01-31, 03:49:00,VALID,915.537,VALID,0,VALID,100,VALID,0,VALID,18.4003,VALID,22,VALID,0.00111607,
2009-01-31, 03:50:00,VALID,915.542,VALID,0,VALID,100,VALID,0,VALID,18.4101,VALID,18,VALID,0.00372869,
2009-01-31, 03:51:00,VALID,915.521,VALID,0,VALID,100,VALID,0.0169808,VALID,18.4029,VALID,1,VALID,0.273983,
2009-01-31, 03:52:00,VALID,915.548,VALID,0,VALID,100,VALID,0.0169808,VALID,18.4029,VALID,357,VALID,0.0565476,
2009-01-31, 03:53:00,VALID,915.534,VALID,0,VALID,100,VALID,0,VALID,18.4036,VALID,336,VALID,0.0240234,